Flag for Germany Weather past 2 weeks in Nürburg, Rhineland-Palatinate, Germany

Now
63 °F

Overcast.


Feels Like: 63 °F
Forecast: 56 / 73 °F
Wind: 3 mph from North

Location: Nuerburg-Barweiler

Current Time: Jul 5, 2015 at 11:16:39 PM

Latest Report: Jul 5, 2015 at 10:00 PM


Visibility: 19 mi

Pressure: 30.04 "Hg (27.99 "Hg at 601m altitude)

Humidity: 83%

Dew point: 58 °F

Location of NürburgLocation

Historic Weather in Nürburg — Graph

°F

Nürburg temperature yesterday

Maximum temperature yesterday: 94 °F (at 4:00 PM)
Minimum temperature yesterday: 72 °F (at 6:00 AM)
Average temperature yesterday: 83 °F

Past Weeks' High & Low Weather Summary

 TemperatureHumidityPressure
High94 °F (Jul 4, 4:00 PM)97% (Jun 22, 10:00 PM)30.25 "Hg (Jun 22, 10:00 PM)
Low44 °F (Jun 23, 2:00 AM)25% (Jul 4, 3:00 PM)29.70 "Hg (Jun 22, 10:00 PM)
Average66 °F65%30.08 "Hg
* Reported Jun 20 10:00 PM — Jul 5 10:00 PM, Nürburg, Weather by CustomWeather, © 2015

Note: Actual official high and low records may vary slightly from our data, if they occured in-between our weather recording intervals... More about our weather records

Advertising

Nürburg weather history for previous 24 hours

 ConditionsComfort  
Time TempWeatherWind HumidityBarometerVisibility
10:00 PM
Sun, Jul 5
63 °FOvercast.3 mph83%30.04 "Hg19 mi
9:00 PM65 °FScattered clouds.5 mph78%29.99 "Hg17 mi
8:00 PM67 °FPartly sunny.8 mph76%29.98 "Hg15 mi
7:00 PM76 °FPassing clouds.7 mph69%29.94 "Hg15 mi
6:00 PM89 °FScattered clouds.9 mph33%29.84 "Hg25 mi
4:00 PM89 °FOvercast.6 mph36%29.86 "Hg22 mi
3:00 PM89 °FOvercast.6 mph39%29.89 "Hg22 mi
2:00 PM91 °FScattered clouds.5 mph36%29.89 "Hg22 mi
1:00 PM89 °FScattered clouds.5 mph38%29.91 "Hg25 mi
12:00 PM87 °FPassing clouds.3 mph42%29.93 "Hg25 mi
10:00 AM75 °FThunderstorms. Partly sunny.2 mph61%30.01 "Hg28 mi
9:00 AM70 °FThunderstorms. Partly sunny.2 mph65%30.05 "Hg22 mi
8:00 AM67 °FScattered clouds.3 mph68%30.07 "Hg31 mi
7:00 AM66 °FPassing clouds.2 mph73%30.08 "Hg31 mi
4:00 AM68 °FOvercast.3 mph67%30.11 "Hg18 mi
3:00 AM69 °FPassing clouds.3 mph68%30.12 "Hg14 mi
2:00 AM71 °FClear.3 mph66%30.11 "Hg16 mi
1:00 AM73 °FClear.3 mph62%30.11 "Hg16 mi
12:00 AM76 °FClear.2 mph61%30.10 "Hg16 mi
Weather by CustomWeather, © 2015

See weather overviewHow to use our weather pages